STARLINK-34561, 65081

Orbit data source: Space-Track

STARLINK-34561, 65081 is a payload satellite owned by SpaceX/Seattle (US) in LEO that was launched on Mon, 04 Aug 2025 UTC via an FALCON 9 launch vehicle from the Air Force Eastern Test Range (AFETR). Payload-class satellites include a variety of spacecraft equipped with specific instruments for various scientific and technological missions. These include communications satellites like Starlink; space stations such as the ISS; scientific satellites like the Hubble; Earth observation satellites from companies like Planet Labs, Umbra, and HawkEye 360; GPS; miniature CubeSats for education and research; and military/defense satellites.

Loading next visibility...
Identifier
65081, 2025-167D
Orbit
LEO
Country
Flag of USUS
Related business
Manufacturer
SpaceX/Seattle
Mission
Operational Commercial Communications
Bus & Motor
STARLINK V2MO, Unknown motor
Mass
575 kg wet, ~530 kg dry
Launch date (UTC)
2025-08-04 (9 months ago)
Launch vehicle
FALCON 9
Launch site
Air Force Eastern Test Range (AFETR)
Object type
Payload
Rocket body
Debris
Shape & HBR
Box + 2 Pan, 17.7 m
Radar Cross Section
36.964 m², Large (>1 m²)

Expand to show TLE details & history
Last TLE update: 11 hours ago

TLE from 11 hours ago
0 STARLINK-34561
1 65081U 25167D   26127.25366996  .00010338  00000-0  36071-3 0  9990
2 65081  53.1576 112.0281 0001309  81.7037 278.4112 15.30197434 43732
Epoch: 2026-05-07T06:05Z
TLE epoch observation values (Epoch: 2026-05-07T06:05:17.084Z)
Latitude
-0.00003°
Longitude
155.60444°
Altitude
475.991 km
Speed
7.629 km/s
True Right ascension
07h 28m 06s
True Declination
0° 00' 00"
Sunlit
Object was in daylight at epoch
Visualization orbit readout
Latitude
Unknown
Longitude
Unknown
Altitude
Unknown
Speed
Unknown
Apparent Right ascension
Unknown
Apparent Declination
Unknown
Sunlit
N/A
Visualization observer readout
Local Sidereal Time
00:48:31
Azimuth
Unknown
Elevation
Unknown
Doppler factor
Unknown
Orbital elements
Apogee altitude
476.377 km
Perigee altitude
474.582 km
Semi-major axis
6,853.617 km
Eccentricity
0.00013
Inclination
53.1576°
RAAN
112.0281°
Arg. of periapsis
81.7037°
True anomaly
278.39636°
Mean anomaly
278.4112°
Eccentric anomaly
278.40378°
Mean motion
3.82528 °/min
Orbital period
94.11 mins
BSTAR
0.00036071
Loading maneuver chart data...
Computing Atmospheric mass density...
Loading historical data...
Loading historical data...
Loading historical data...
Loading historical data...
Loading historical data...
Loading historical data...
Loading historical data...

Documentation

Showing up to 5 results
|